When you browse on this site, cookies collect data to enhance your experience and personalize the content and advertising you see.
Visit our Privacy Policy to learn more. By continuing to use the site, you agree to this use of cookies and data.
  • In Lithuania
  • List of Countries
  • For 7 days
  • Water Temperature
  • Weather Map
  • Weather Widgets
  • user-avatar
    Login

    Hourly Weather Bratislava

    Today, 30 May, Saturday

    Time Temperature Precipitation Wind Pressure Humidity
    00:00 +9°C° 0 mm 3 mps 752 mmHg 82%
    01:00 +7°C° 0 mm 4 mps 752 mmHg 82%
    02:00 +7°C° 0 mm 4 mps 752 mmHg 83%
    03:00 +6°C° 0 mm 4 mps 751 mmHg 84%
    04:00 +6°C° 0 mm 4 mps 751 mmHg 86%
    05:00 +7°C° 0 mm 4 mps 751 mmHg 79%
    06:00 +9°C° 0 mm 5 mps 751 mmHg 73%
    07:00 +10°C° 0 mm 6 mps 751 mmHg 66%
    08:00 +13°C° 0 mm 6 mps 751 mmHg 62%
    09:00 +14°C° 0 mm 6 mps 751 mmHg 58%
    10:00 +15°C° 0 mm 6 mps 750 mmHg 53%
    11:00 +15°C° 0.1 mm 6 mps 750 mmHg 52%
    12:00 +16°C° 0.1 mm 6 mps 750 mmHg 51%
    13:00 +17°C° 0.1 mm 6 mps 750 mmHg 51%
    14:00 +16°C° 0.1 mm 6 mps 749 mmHg 53%
    15:00 +16°C° 0.1 mm 6 mps 749 mmHg 55%
    16:00 +16°C° 0.1 mm 6 mps 749 mmHg 57%
    17:00 +15°C° 0 mm 6 mps 749 mmHg 62%
    18:00 +14°C° 0 mm 5 mps 749 mmHg 68%
    19:00 +13°C° 0 mm 4 mps 749 mmHg 74%
    20:00 +12°C° 0 mm 4 mps 749 mmHg 77%
    21:00 +11°C° 0 mm 4 mps 749 mmHg 81%
    22:00 +10°C° 0 mm 4 mps 750 mmHg 84%
    23:00 +8°C° 0 mm 4 mps 749 mmHg 84%

    Tomorrow, 31 May, Sunday

    Time Temperature Precipitation Wind Pressure Humidity
    00:00 +8°C° 0 mm 4 mps 749 mmHg 85%
    01:00 +8°C° 0 mm 4 mps 749 mmHg 86%
    02:00 +8°C° 0 mm 4 mps 749 mmHg 84%
    03:00 +8°C° 0 mm 4 mps 749 mmHg 83%
    04:00 +8°C° 0 mm 4 mps 749 mmHg 81%
    05:00 +9°C° 0 mm 5 mps 749 mmHg 77%
    06:00 +10°C° 0 mm 6 mps 749 mmHg 73%
    07:00 +11°C° 0 mm 7 mps 748 mmHg 69%
    08:00 +11°C° 0.3 mm 7 mps 748 mmHg 72%
    09:00 +10°C° 0.3 mm 7 mps 748 mmHg 75%
    10:00 +10°C° 0.3 mm 7 mps 748 mmHg 78%
    11:00 +10°C° 1.1 mm 7 mps 748 mmHg 82%
    12:00 +10°C° 1.1 mm 7 mps 748 mmHg 86%
    13:00 +10°C° 1.1 mm 7 mps 748 mmHg 90%
    14:00 +10°C° 0.9 mm 7 mps 748 mmHg 90%
    15:00 +10°C° 0.9 mm 7 mps 748 mmHg 91%
    16:00 +10°C° 0.9 mm 7 mps 748 mmHg 92%
    17:00 +10°C° 0.2 mm 7 mps 748 mmHg 91%
    18:00 +10°C° 0.2 mm 6 mps 748 mmHg 91%
    19:00 +10°C° 0.2 mm 6 mps 748 mmHg 91%
    20:00 +10°C° 0 mm 6 mps 748 mmHg 91%
    21:00 +11°C° 0 mm 6 mps 748 mmHg 91%
    22:00 +11°C° 0 mm 6 mps 748 mmHg 90%
    23:00 +11°C° 0 mm 6 mps 748 mmHg 91%

    Day after tomorrow, 1 June, Monday

    Time Temperature Precipitation Wind Pressure Humidity
    00:00 +12°C° 0 mm 5 mps 749 mmHg 91%
    01:00 +10°C° 0 mm 5 mps 749 mmHg 91%
    02:00 +10°C° 0 mm 5 mps 749 mmHg 91%
    03:00 +10°C° 0 mm 5 mps 749 mmHg 91%
    04:00 +9°C° 0 mm 5 mps 749 mmHg 91%
    05:00 +10°C° 0 mm 5 mps 749 mmHg 87%
    06:00 +13°C° 0 mm 5 mps 749 mmHg 82%
    07:00 +14°C° 0 mm 5 mps 750 mmHg 78%
    08:00 +15°C° 0 mm 6 mps 750 mmHg 71%
    09:00 +17°C° 0 mm 6 mps 750 mmHg 63%
    10:00 +18°C° 0 mm 7 mps 750 mmHg 56%
    11:00 +18°C° 0 mm 7 mps 750 mmHg 54%
    12:00 +20°C° 0 mm 7 mps 750 mmHg 53%
    13:00 +20°C° 0 mm 7 mps 750 mmHg 51%
    14:00 +20°C° 0 mm 7 mps 750 mmHg 52%
    15:00 +20°C° 0 mm 7 mps 750 mmHg 52%
    16:00 +20°C° 0 mm 7 mps 749 mmHg 53%
    17:00 +17°C° 0 mm 6 mps 750 mmHg 57%
    18:00 +16°C° 0 mm 6 mps 750 mmHg 61%
    19:00 +14°C° 0 mm 5 mps 750 mmHg 66%
    20:00 +13°C° 0 mm 5 mps 750 mmHg 68%
    21:00 +12°C° 0 mm 4 mps 750 mmHg 70%
    22:00 +11°C° 0 mm 4 mps 751 mmHg 72%
    23:00 +10°C° 0 mm 4 mps 751 mmHg 74%

    2 June, Tuesday

    Time Temperature Precipitation Wind Pressure Humidity
    00:00 +10°C° 0 mm 4 mps 751 mmHg 75%
    01:00 +8°C° 0 mm 4 mps 751 mmHg 77%
    02:00 +8°C° 0 mm 4 mps 750 mmHg 78%
    03:00 +7°C° 0 mm 4 mps 750 mmHg 80%
    04:00 +7°C° 0 mm 4 mps 750 mmHg 81%
    05:00 +8°C° 0 mm 5 mps 750 mmHg 76%
    06:00 +10°C° 0 mm 5 mps 750 mmHg 71%
    07:00 +13°C° 0 mm 6 mps 750 mmHg 66%
    08:00 +14°C° 0 mm 6 mps 749 mmHg 65%
    09:00 +15°C° 0 mm 6 mps 749 mmHg 64%
    10:00 +15°C° 0 mm 7 mps 749 mmHg 64%
    11:00 +16°C° 0.1 mm 7 mps 748 mmHg 63%
    12:00 +16°C° 0.1 mm 6 mps 748 mmHg 63%
    13:00 +16°C° 0.1 mm 6 mps 748 mmHg 62%
    14:00 +17°C° 0 mm 6 mps 747 mmHg 59%
    15:00 +17°C° 0 mm 6 mps 747 mmHg 56%
    16:00 +19°C° 0 mm 6 mps 747 mmHg 53%
    17:00 +16°C° 0 mm 5 mps 746 mmHg 59%
    18:00 +15°C° 0 mm 4 mps 746 mmHg 64%
    19:00 +14°C° 0 mm 3 mps 746 mmHg 70%
    20:00 +13°C° 0 mm 3 mps 746 mmHg 71%
    21:00 +11°C° 0 mm 3 mps 746 mmHg 73%
    22:00 +10°C° 0 mm 2 mps 746 mmHg 75%
    23:00 +10°C° 0 mm 3 mps 746 mmHg 78%

    3 June, Wednesday

    Time Temperature Precipitation Wind Pressure Humidity
    00:00 +9°C° 0 mm 3 mps 746 mmHg 81%
    01:00 +8°C° 0 mm 3 mps 745 mmHg 83%
    02:00 +8°C° 0 mm 3 mps 745 mmHg 83%
    03:00 +8°C° 0 mm 3 mps 745 mmHg 84%
    04:00 +7°C° 0 mm 3 mps 744 mmHg 84%
    05:00 +8°C° 0 mm 4 mps 744 mmHg 78%
    06:00 +11°C° 0 mm 4 mps 744 mmHg 72%
    07:00 +13°C° 0 mm 5 mps 744 mmHg 66%
    08:00 +14°C° 0 mm 5 mps 744 mmHg 63%
    09:00 +17°C° 0 mm 4 mps 744 mmHg 59%
    10:00 +18°C° 0 mm 4 mps 744 mmHg 56%
    11:00 +19°C° 0.1 mm 4 mps 744 mmHg 54%
    12:00 +19°C° 0.1 mm 4 mps 744 mmHg 53%
    13:00 +20°C° 0.1 mm 4 mps 743 mmHg 52%
    14:00 +20°C° 0.1 mm 4 mps 743 mmHg 52%
    15:00 +20°C° 0.1 mm 3 mps 743 mmHg 52%
    16:00 +20°C° 0.1 mm 3 mps 743 mmHg 52%
    17:00 +19°C° 0 mm 3 mps 743 mmHg 59%
    18:00 +18°C° 0 mm 2 mps 743 mmHg 66%
    19:00 +16°C° 0 mm 2 mps 743 mmHg 73%
    20:00 +15°C° 0 mm 2 mps 743 mmHg 77%
    21:00 +14°C° 0 mm 2 mps 743 mmHg 80%
    22:00 +12°C° 0 mm 1 mps 744 mmHg 84%
    23:00 +12°C° 0 mm 1 mps 743 mmHg 85%

    4 June, Thursday

    Time Temperature Precipitation Wind Pressure Humidity
    00:00 +11°C° 0 mm 1 mps 743 mmHg 86%
    01:00 +10°C° 0 mm 1 mps 743 mmHg 86%
    02:00 +10°C° 0 mm 1 mps 743 mmHg 88%
    03:00 +10°C° 0 mm 1 mps 743 mmHg 90%
    04:00 +9°C° 0 mm 1 mps 742 mmHg 91%
    05:00 +11°C° 0 mm 1 mps 742 mmHg 86%
    06:00 +13°C° 0 mm 2 mps 742 mmHg 82%
    07:00 +14°C° 0 mm 2 mps 742 mmHg 77%
    08:00 +16°C° 0 mm 2 mps 742 mmHg 71%
    09:00 +17°C° 0 mm 3 mps 742 mmHg 66%
    10:00 +19°C° 0 mm 3 mps 742 mmHg 60%
    11:00 +20°C° 0 mm 3 mps 742 mmHg 57%
    12:00 +21°C° 0 mm 4 mps 741 mmHg 54%
    13:00 +22°C° 0 mm 4 mps 741 mmHg 51%
    14:00 +22°C° 0 mm 5 mps 741 mmHg 53%
    15:00 +22°C° 0 mm 5 mps 740 mmHg 54%
    16:00 +22°C° 0 mm 5 mps 740 mmHg 56%
    17:00 +21°C° 0 mm 4 mps 740 mmHg 62%
    18:00 +20°C° 0 mm 4 mps 740 mmHg 68%
    19:00 +19°C° 0 mm 4 mps 740 mmHg 74%
    20:00 +18°C° 0 mm 4 mps 740 mmHg 74%
    21:00 +17°C° 0 mm 4 mps 740 mmHg 75%
    22:00 +15°C° 0 mm 5 mps 740 mmHg 75%
    23:00 +15°C° 0 mm 4 mps 740 mmHg 79%
    Show more